,,PressureMeas_1m,,PRMeasQMR101_1,,RHStat155_1m_1,,SRMeasQMS101R_1m,,TAStat155_1m_1,,GenWind_1,,GenWind_1,
2019-05-14, 00:00:06,VALID,917.813,VALID,0.0,VALID,98.591,VALID,0.001,VALID,22.381,INVALID,360.0,VALID,0.0,
2019-05-14, 00:01:06,VALID,917.793,VALID,0.0,VALID,98.561,VALID,0.015,VALID,22.363,INVALID,360.0,VALID,0.0,
2019-05-14, 00:02:06,VALID,917.788,VALID,0.0,VALID,98.66,VALID,0.023,VALID,22.412,INVALID,360.0,VALID,0.0,
2019-05-14, 00:03:06,VALID,917.766,VALID,0.0,VALID,98.584,VALID,0.024,VALID,22.331,INVALID,360.0,VALID,0.0,
2019-05-14, 00:04:06,VALID,917.766,VALID,0.2,VALID,98.597,VALID,0.021,VALID,22.318,INVALID,360.0,VALID,0.0,
2019-05-14, 00:05:06,VALID,917.757,VALID,0.0,VALID,98.689,VALID,0.023,VALID,22.348,INVALID,360.0,VALID,0.0,
2019-05-14, 00:06:06,VALID,917.765,VALID,0.0,VALID,98.644,VALID,0.024,VALID,22.307,INVALID,360.0,VALID,0.0,
2019-05-14, 00:07:06,VALID,917.754,VALID,0.2,VALID,98.706,VALID,0.024,VALID,22.334,INVALID,360.0,VALID,0.0,
2019-05-14, 00:08:06,VALID,917.774,VALID,0.0,VALID,98.734,VALID,0.01,VALID,22.348,INVALID,360.0,VALID,0.0,
2019-05-14, 00:09:06,VALID,917.758,VALID,0.0,VALID,98.771,VALID,0.033,VALID,22.357,INVALID,360.0,VALID,0.0,
2019-05-14, 00:10:06,VALID,917.773,VALID,0.0,VALID,98.728,VALID,0.014,VALID,22.317,INVALID,360.0,VALID,0.0,
2019-05-14, 00:11:06,VALID,917.763,VALID,0.0,VALID,98.748,VALID,0.024,VALID,22.309,INVALID,360.0,VALID,0.0,
2019-05-14, 00:12:06,VALID,917.769,VALID,0.0,VALID,98.775,VALID,0.043,VALID,22.332,INVALID,360.0,VALID,0.0,
2019-05-14, 00:13:06,VALID,917.746,VALID,0.0,VALID,98.822,VALID,0.035,VALID,22.356,INVALID,360.0,VALID,0.0,
2019-05-14, 00:14:06,VALID,917.72,VALID,0.0,VALID,98.748,VALID,0.012,VALID,22.291,INVALID,360.0,VALID,0.0,
2019-05-14, 00:15:06,VALID,917.727,VALID,0.0,VALID,98.802,VALID,0.024,VALID,22.324,INVALID,360.0,VALID,0.0,
2019-05-14, 00:16:06,VALID,917.72,VALID,0.0,VALID,98.828,VALID,0.022,VALID,22.342,INVALID,360.0,VALID,0.0,
2019-05-14, 00:17:06,VALID,917.708,VALID,0.0,VALID,98.828,VALID,0.026,VALID,22.363,INVALID,360.0,VALID,0.0,
2019-05-14, 00:18:06,VALID,917.698,VALID,0.0,VALID,98.801,VALID,0.015,VALID,22.334,INVALID,360.0,VALID,0.0,
2019-05-14, 00:19:06,VALID,917.692,VALID,0.0,VALID,98.778,VALID,0.026,VALID,22.298,INVALID,360.0,VALID,0.0,
2019-05-14, 00:20:06,VALID,917.666,VALID,0.0,VALID,98.782,VALID,0.018,VALID,22.275,INVALID,360.0,VALID,0.0,
2019-05-14, 00:21:06,VALID,917.657,VALID,0.0,VALID,98.79,VALID,0.017,VALID,22.289,INVALID,360.0,VALID,0.0,
2019-05-14, 00:22:06,VALID,917.65,VALID,0.0,VALID,98.812,VALID,0.005,VALID,22.313,INVALID,360.0,VALID,0.0,
2019-05-14, 00:23:06,VALID,917.617,VALID,0.0,VALID,98.739,VALID,0.023,VALID,22.232,INVALID,360.0,VALID,0.0,
2019-05-14, 00:24:06,VALID,917.599,VALID,0.0,VALID,98.71,VALID,0.011,VALID,22.183,INVALID,360.0,VALID,0.0,
2019-05-14, 00:25:06,VALID,917.587,VALID,0.0,VALID,98.703,VALID,0.005,VALID,22.194,INVALID,360.0,VALID,0.0,
2019-05-14, 00:26:06,VALID,917.57,VALID,0.0,VALID,98.745,VALID,0.02,VALID,22.252,INVALID,360.0,VALID,0.0,
2019-05-14, 00:27:06,VALID,917.578,VALID,0.0,VALID,98.722,VALID,0.026,VALID,22.276,INVALID,360.0,VALID,0.0,
2019-05-14, 00:28:06,VALID,917.578,VALID,0.0,VALID,98.743,VALID,0.009,VALID,22.299,INVALID,360.0,VALID,0.0,
2019-05-14, 00:29:06,VALID,917.589,VALID,0.0,VALID,98.7,VALID,0.021,VALID,22.261,INVALID,360.0,VALID,0.0,
2019-05-14, 00:30:06,VALID,917.586,VALID,0.0,VALID,98.652,VALID,0.022,VALID,22.249,INVALID,360.0,VALID,0.0,
2019-05-14, 00:31:06,VALID,917.578,VALID,0.0,VALID,98.607,VALID,-0.01,VALID,22.223,INVALID,360.0,VALID,0.0,
2019-05-14, 00:32:06,VALID,917.598,VALID,0.0,VALID,98.618,VALID,-0.011,VALID,22.237,INVALID,360.0,VALID,0.0,
2019-05-14, 00:33:06,VALID,917.601,VALID,0.0,VALID,98.71,VALID,-0.008,VALID,22.306,INVALID,360.0,VALID,0.0,
2019-05-14, 00:34:06,VALID,917.619,VALID,0.0,VALID,98.698,VALID,-0.017,VALID,22.289,INVALID,360.0,VALID,0.0,
2019-05-14, 00:35:06,VALID,917.62,VALID,0.0,VALID,98.665,VALID,-0.027,VALID,22.255,INVALID,360.0,VALID,0.0,
2019-05-14, 00:36:06,VALID,917.619,VALID,0.0,VALID,98.639,VALID,-0.011,VALID,22.216,INVALID,360.0,VALID,0.0,
2019-05-14, 00:37:06,VALID,917.594,VALID,0.0,VALID,98.649,VALID,-0.019,VALID,22.213,INVALID,360.0,VALID,0.0,
2019-05-14, 00:38:06,VALID,917.575,VALID,0.0,VALID,98.597,VALID,-0.008,VALID,22.137,INVALID,360.0,VALID,0.0,
2019-05-14, 00:39:06,VALID,917.57,VALID,0.0,VALID,98.549,VALID,-0.032,VALID,22.086,INVALID,360.0,VALID,0.0,
2019-05-14, 00:40:06,VALID,917.545,VALID,0.0,VALID,98.597,VALID,-0.019,VALID,22.089,INVALID,360.0,VALID,0.0,
2019-05-14, 00:41:06,VALID,917.514,VALID,0.0,VALID,98.562,VALID,-0.013,VALID,22.089,INVALID,360.0,VALID,0.0,
2019-05-14, 00:42:06,VALID,917.469,VALID,0.0,VALID,98.585,VALID,-0.004,VALID,22.07,INVALID,360.0,VALID,0.0,
2019-05-14, 00:43:06,VALID,917.459,VALID,0.0,VALID,98.536,VALID,-0.0,VALID,22.04,INVALID,360.0,VALID,0.0,
2019-05-14, 00:44:06,VALID,917.445,VALID,0.0,VALID,98.515,VALID,-0.012,VALID,22.008,INVALID,360.0,VALID,0.0,
2019-05-14, 00:45:06,VALID,917.433,VALID,0.0,VALID,98.474,VALID,-0.013,VALID,21.99,INVALID,360.0,VALID,0.0,
2019-05-14, 00:46:06,VALID,917.427,VALID,0.0,VALID,98.53,VALID,0.005,VALID,22.006,INVALID,360.0,VALID,0.0,
2019-05-14, 00:47:06,VALID,917.41,VALID,0.0,VALID,98.518,VALID,-0.011,VALID,21.971,INVALID,360.0,VALID,0.0,
2019-05-14, 00:48:06,VALID,917.429,VALID,0.0,VALID,98.475,VALID,0.003,VALID,21.939,INVALID,360.0,VALID,0.0,
2019-05-14, 00:49:06,VALID,917.401,VALID,0.0,VALID,98.514,VALID,-0.002,VALID,21.928,INVALID,360.0,VALID,0.0,
2019-05-14, 00:50:06,VALID,917.404,VALID,0.0,VALID,98.456,VALID,0.004,VALID,21.917,INVALID,360.0,VALID,0.0,
2019-05-14, 00:51:06,VALID,917.381,VALID,0.0,VALID,98.492,VALID,0.017,VALID,21.941,INVALID,360.0,VALID,0.0,
2019-05-14, 00:52:06,VALID,917.385,VALID,0.0,VALID,98.449,VALID,0.007,VALID,21.939,INVALID,360.0,VALID,0.0,
2019-05-14, 00:53:06,VALID,917.343,VALID,0.0,VALID,98.474,VALID,0.002,VALID,21.962,INVALID,360.0,VALID,0.0,
2019-05-14, 00:54:06,VALID,917.341,VALID,0.0,VALID,98.465,VALID,0.025,VALID,21.975,INVALID,360.0,VALID,0.0,
2019-05-14, 00:55:06,VALID,917.333,VALID,0.0,VALID,98.44,VALID,0.024,VALID,21.974,INVALID,360.0,VALID,0.0,
2019-05-14, 00:56:06,VALID,917.293,VALID,0.0,VALID,98.488,VALID,0.022,VALID,22.008,INVALID,360.0,VALID,0.0,
2019-05-14, 00:57:06,VALID,917.279,VALID,0.0,VALID,98.408,VALID,0.006,VALID,21.979,INVALID,360.0,VALID,0.0,
2019-05-14, 00:58:06,VALID,917.275,VALID,0.0,VALID,98.419,VALID,0.008,VALID,21.991,INVALID,360.0,VALID,0.0,
2019-05-14, 00:59:06,VALID,917.251,VALID,0.0,VALID,98.47,VALID,0.02,VALID,22.019,INVALID,360.0,VALID,0.0,
2019-05-14, 01:00:06,VALID,917.239,VALID,0.0,VALID,98.444,VALID,0.004,VALID,22.017,INVALID,360.0,VALID,0.0,
2019-05-14, 01:01:06,VALID,917.24,VALID,0.0,VALID,98.426,VALID,0.022,VALID,22.009,INVALID,360.0,VALID,0.0,
2019-05-14, 01:02:06,VALID,917.218,VALID,0.0,VALID,98.366,VALID,0.011,VALID,21.991,INVALID,360.0,VALID,0.0,
2019-05-14, 01:03:06,VALID,917.211,VALID,0.0,VALID,98.446,VALID,0.024,VALID,22.027,INVALID,360.0,VALID,0.0,
2019-05-14, 01:04:06,VALID,917.194,VALID,0.0,VALID,98.177,VALID,0.025,VALID,21.937,INVALID,360.0,VALID,0.0,
2019-05-14, 01:05:06,VALID,917.182,VALID,0.0,VALID,98.108,VALID,0.013,VALID,21.933,INVALID,360.0,VALID,0.0,
2019-05-14, 01:06:06,VALID,917.169,VALID,0.0,VALID,98.053,VALID,-0.001,VALID,21.922,INVALID,360.0,VALID,0.0,
2019-05-14, 01:07:06,VALID,917.153,VALID,0.0,VALID,97.958,VALID,0.009,VALID,21.897,INVALID,360.0,VALID,0.0,
2019-05-14, 01:08:06,VALID,917.117,VALID,0.0,VALID,98.065,VALID,0.01,VALID,21.921,INVALID,360.0,VALID,0.0,
2019-05-14, 01:09:06,VALID,917.102,VALID,0.0,VALID,98.214,VALID,0.018,VALID,21.958,INVALID,360.0,VALID,0.0,
2019-05-14, 01:10:06,VALID,917.092,VALID,0.0,VALID,98.277,VALID,0.025,VALID,21.96,INVALID,360.0,VALID,0.0,
2019-05-14, 01:11:06,VALID,917.084,VALID,0.0,VALID,98.281,VALID,0.021,VALID,21.939,INVALID,360.0,VALID,0.0,
2019-05-14, 01:12:06,VALID,917.099,VALID,0.0,VALID,98.261,VALID,0.039,VALID,21.913,INVALID,360.0,VALID,0.0,
2019-05-14, 01:13:06,VALID,917.086,VALID,0.0,VALID,98.204,VALID,0.032,VALID,21.864,INVALID,360.0,VALID,0.0,
2019-05-14, 01:14:06,VALID,917.078,VALID,0.0,VALID,98.259,VALID,0.022,VALID,21.863,INVALID,360.0,VALID,0.0,
2019-05-14, 01:15:06,VALID,917.082,VALID,0.0,VALID,98.266,VALID,0.018,VALID,21.83,INVALID,360.0,VALID,0.0,
2019-05-14, 01:16:06,VALID,917.074,VALID,0.0,VALID,98.251,VALID,0.011,VALID,21.787,INVALID,360.0,VALID,0.0,
2019-05-14, 01:17:06,VALID,917.069,VALID,0.0,VALID,98.284,VALID,-0.003,VALID,21.77,INVALID,360.0,VALID,0.0,
2019-05-14, 01:18:06,VALID,917.066,VALID,0.0,VALID,98.366,VALID,0.015,VALID,21.769,INVALID,360.0,VALID,0.0,
2019-05-14, 01:19:06,VALID,917.089,VALID,0.0,VALID,98.396,VALID,0.009,VALID,21.744,INVALID,360.0,VALID,0.0,
2019-05-14, 01:20:06,VALID,917.074,VALID,0.0,VALID,98.44,VALID,0.001,VALID,21.752,INVALID,360.0,VALID,0.0,
2019-05-14, 01:21:06,VALID,917.08,VALID,0.0,VALID,98.496,VALID,-0.003,VALID,21.753,INVALID,360.0,VALID,0.0,
2019-05-14, 01:22:06,VALID,917.086,VALID,0.0,VALID,98.597,VALID,-0.009,VALID,21.787,INVALID,360.0,VALID,0.0,
2019-05-14, 01:23:06,VALID,917.087,VALID,0.0,VALID,98.711,VALID,-0.006,VALID,21.827,INVALID,360.0,VALID,0.0,
2019-05-14, 01:24:06,VALID,917.076,VALID,0.0,VALID,98.604,VALID,0.005,VALID,21.736,INVALID,360.0,VALID,0.0,
2019-05-14, 01:25:06,VALID,917.066,VALID,0.0,VALID,98.641,VALID,0.011,VALID,21.729,INVALID,360.0,VALID,0.0,
2019-05-14, 01:26:06,VALID,917.086,VALID,0.0,VALID,98.599,VALID,-0.006,VALID,21.699,INVALID,360.0,VALID,0.0,
2019-05-14, 01:27:06,VALID,917.087,VALID,0.0,VALID,98.636,VALID,0.006,VALID,21.717,INVALID,360.0,VALID,0.0,
2019-05-14, 01:28:06,VALID,917.097,VALID,0.0,VALID,98.642,VALID,0.01,VALID,21.699,INVALID,360.0,VALID,0.0,
2019-05-14, 01:29:06,VALID,917.144,VALID,0.0,VALID,98.704,VALID,0.015,VALID,21.742,INVALID,360.0,VALID,0.0,
2019-05-14, 01:30:06,VALID,917.153,VALID,0.0,VALID,98.707,VALID,0.003,VALID,21.751,INVALID,360.0,VALID,0.0,
2019-05-14, 01:31:06,VALID,917.176,VALID,0.0,VALID,98.691,VALID,0.004,VALID,21.747,INVALID,360.0,VALID,0.0,
2019-05-14, 01:32:06,VALID,917.192,VALID,0.0,VALID,98.681,VALID,0.028,VALID,21.741,INVALID,360.0,VALID,0.0,
2019-05-14, 01:33:06,VALID,917.202,VALID,0.0,VALID,98.718,VALID,0.012,VALID,21.761,INVALID,360.0,VALID,0.0,
2019-05-14, 01:34:06,VALID,917.224,VALID,0.0,VALID,98.706,VALID,0.026,VALID,21.769,INVALID,360.0,VALID,0.0,
2019-05-14, 01:35:06,VALID,917.233,VALID,0.0,VALID,98.773,VALID,0.025,VALID,21.812,INVALID,360.0,VALID,0.0,
2019-05-14, 01:36:06,VALID,917.242,VALID,0.0,VALID,98.767,VALID,0.013,VALID,21.817,INVALID,360.0,VALID,0.0,
2019-05-14, 01:37:06,VALID,917.24,VALID,0.0,VALID,98.678,VALID,0.006,VALID,21.759,INVALID,360.0,VALID,0.0,
2019-05-14, 01:38:06,VALID,917.225,VALID,0.0,VALID,98.743,VALID,0.015,VALID,21.782,INVALID,360.0,VALID,0.0,
2019-05-14, 01:39:06,VALID,917.242,VALID,0.0,VALID,98.746,VALID,0.024,VALID,21.815,INVALID,360.0,VALID,0.0,
2019-05-14, 01:40:06,VALID,917.222,VALID,0.0,VALID,98.763,VALID,0.016,VALID,21.849,INVALID,360.0,VALID,0.0,
2019-05-14, 01:41:06,VALID,917.196,VALID,0.0,VALID,98.783,VALID,0.012,VALID,21.88,INVALID,360.0,VALID,0.0,
2019-05-14, 01:42:06,VALID,917.167,VALID,0.0,VALID,98.762,VALID,0.015,VALID,21.849,INVALID,360.0,VALID,0.0,
2019-05-14, 01:43:06,VALID,917.148,VALID,0.0,VALID,98.735,VALID,0.019,VALID,21.837,INVALID,360.0,VALID,0.0,
2019-05-14, 01:44:06,VALID,917.143,VALID,0.0,VALID,98.7,VALID,-0.001,VALID,21.797,INVALID,360.0,VALID,0.0,
2019-05-14, 01:45:06,VALID,917.123,VALID,0.0,VALID,98.711,VALID,0.015,VALID,21.795,INVALID,360.0,VALID,0.0,
2019-05-14, 01:46:06,VALID,917.125,VALID,0.0,VALID,98.756,VALID,-0.009,VALID,21.821,INVALID,360.0,VALID,0.0,
2019-05-14, 01:47:06,VALID,917.136,VALID,0.0,VALID,98.765,VALID,-0.015,VALID,21.817,INVALID,360.0,VALID,0.0,
2019-05-14, 01:48:06,VALID,917.165,VALID,0.0,VALID,98.747,VALID,-0.0,VALID,21.787,INVALID,360.0,VALID,0.0,
2019-05-14, 01:49:06,VALID,917.17,VALID,0.0,VALID,98.783,VALID,-0.006,VALID,21.783,INVALID,360.0,VALID,0.0,
2019-05-14, 01:50:06,VALID,917.177,VALID,0.0,VALID,98.822,VALID,0.002,VALID,21.79,INVALID,360.0,VALID,0.0,
2019-05-14, 01:51:06,VALID,917.19,VALID,0.0,VALID,98.871,VALID,-0.005,VALID,21.805,INVALID,360.0,VALID,0.0,
2019-05-14, 01:52:06,VALID,917.177,VALID,0.0,VALID,98.893,VALID,-0.008,VALID,21.848,INVALID,360.0,VALID,0.0,
2019-05-14, 01:53:06,VALID,917.16,VALID,0.0,VALID,98.954,VALID,0.002,VALID,21.896,INVALID,360.0,VALID,0.0,
2019-05-14, 01:54:06,VALID,917.146,VALID,0.0,VALID,98.9,VALID,-0.001,VALID,21.842,INVALID,360.0,VALID,0.0,
2019-05-14, 01:55:06,VALID,917.137,VALID,0.0,VALID,98.929,VALID,-0.01,VALID,21.85,INVALID,360.0,VALID,0.0,
2019-05-14, 01:56:06,VALID,917.133,VALID,0.0,VALID,98.933,VALID,-0.02,VALID,21.859,INVALID,360.0,VALID,0.0,
2019-05-14, 01:57:06,VALID,917.102,VALID,0.0,VALID,98.942,VALID,-0.009,VALID,21.883,INVALID,360.0,VALID,0.0,
2019-05-14, 01:58:06,VALID,917.088,VALID,0.0,VALID,98.959,VALID,-0.022,VALID,21.861,INVALID,360.0,VALID,0.0,
2019-05-14, 01:59:06,VALID,917.076,VALID,0.0,VALID,98.918,VALID,-0.002,VALID,21.828,INVALID,360.0,VALID,0.0,
2019-05-14, 02:00:06,VALID,917.057,VALID,0.0,VALID,98.949,VALID,-0.013,VALID,21.839,INVALID,360.0,VALID,0.0,
2019-05-14, 02:01:06,VALID,917.044,VALID,0.0,VALID,98.945,VALID,0.014,VALID,21.844,INVALID,360.0,VALID,0.0,
2019-05-14, 02:02:06,VALID,917.024,VALID,0.0,VALID,99.011,VALID,-0.0,VALID,21.917,INVALID,360.0,VALID,0.0,
2019-05-14, 02:03:06,VALID,917.003,VALID,0.0,VALID,98.997,VALID,0.006,VALID,21.962,INVALID,360.0,VALID,0.0,
2019-05-14, 02:04:06,VALID,916.995,VALID,0.0,VALID,99.012,VALID,0.023,VALID,21.959,INVALID,360.0,VALID,0.0,
2019-05-14, 02:05:06,VALID,916.997,VALID,0.0,VALID,98.955,VALID,-0.002,VALID,21.89,INVALID,360.0,VALID,0.0,
2019-05-14, 02:06:06,VALID,917.0,VALID,0.0,VALID,98.966,VALID,-0.001,VALID,21.902,INVALID,360.0,VALID,0.0,
2019-05-14, 02:07:06,VALID,917.014,VALID,0.0,VALID,98.985,VALID,0.011,VALID,21.947,INVALID,360.0,VALID,0.0,
2019-05-14, 02:08:06,VALID,917.025,VALID,0.0,VALID,98.975,VALID,0.016,VALID,21.908,INVALID,360.0,VALID,0.0,
2019-05-14, 02:09:06,VALID,917.04,VALID,0.0,VALID,98.941,VALID,0.003,VALID,21.859,INVALID,360.0,VALID,0.0,
2019-05-14, 02:10:06,VALID,917.047,VALID,0.0,VALID,98.928,VALID,0.007,VALID,21.865,INVALID,360.0,VALID,0.0,
2019-05-14, 02:11:06,VALID,917.06,VALID,0.0,VALID,98.988,VALID,0.014,VALID,21.893,INVALID,360.0,VALID,0.0,
2019-05-14, 02:12:06,VALID,917.068,VALID,0.0,VALID,98.978,VALID,0.006,VALID,21.922,INVALID,360.0,VALID,0.0,
2019-05-14, 02:13:06,VALID,917.068,VALID,0.0,VALID,98.98,VALID,0.007,VALID,21.934,INVALID,360.0,VALID,0.0,
2019-05-14, 02:14:06,VALID,917.071,VALID,0.0,VALID,98.943,VALID,0.011,VALID,21.866,INVALID,360.0,VALID,0.0,
2019-05-14, 02:15:06,VALID,917.061,VALID,0.0,VALID,98.925,VALID,0.004,VALID,21.83,INVALID,360.0,VALID,0.0,
2019-05-14, 02:16:06,VALID,917.044,VALID,0.0,VALID,98.916,VALID,0.036,VALID,21.826,INVALID,360.0,VALID,0.0,
2019-05-14, 02:17:06,VALID,917.005,VALID,0.0,VALID,98.957,VALID,0.021,VALID,21.849,INVALID,360.0,VALID,0.0,
2019-05-14, 02:18:06,VALID,917.0,VALID,0.0,VALID,98.989,VALID,0.018,VALID,21.907,INVALID,360.0,VALID,0.0,
2019-05-14, 02:19:06,VALID,916.984,VALID,0.0,VALID,98.97,VALID,0.046,VALID,21.899,INVALID,360.0,VALID,0.0,
2019-05-14, 02:20:06,VALID,916.931,VALID,0.0,VALID,98.95,VALID,0.046,VALID,21.875,INVALID,360.0,VALID,0.0,
2019-05-14, 02:21:06,VALID,916.927,VALID,0.0,VALID,98.948,VALID,0.031,VALID,21.868,INVALID,360.0,VALID,0.0,
2019-05-14, 02:22:06,VALID,916.911,VALID,0.2,VALID,98.942,VALID,0.034,VALID,21.87,INVALID,360.0,VALID,0.0,
2019-05-14, 02:23:06,VALID,916.927,VALID,0.0,VALID,98.952,VALID,0.024,VALID,21.892,INVALID,360.0,VALID,0.0,
2019-05-14, 02:24:06,VALID,916.907,VALID,0.0,VALID,98.985,VALID,0.032,VALID,21.905,INVALID,360.0,VALID,0.0,
2019-05-14, 02:25:06,VALID,916.911,VALID,0.2,VALID,98.958,VALID,0.031,VALID,21.901,INVALID,360.0,VALID,0.0,
2019-05-14, 02:26:06,VALID,916.902,VALID,0.0,VALID,98.958,VALID,0.036,VALID,21.901,INVALID,360.0,VALID,0.0,
2019-05-14, 02:27:06,VALID,916.912,VALID,0.0,VALID,98.951,VALID,0.014,VALID,21.886,INVALID,360.0,VALID,0.0,
2019-05-14, 02:28:06,VALID,916.914,VALID,0.0,VALID,98.948,VALID,0.026,VALID,21.877,INVALID,360.0,VALID,0.0,
2019-05-14, 02:29:06,VALID,916.915,VALID,0.0,VALID,98.986,VALID,0.021,VALID,21.912,INVALID,360.0,VALID,0.0,
2019-05-14, 02:30:06,VALID,916.929,VALID,0.0,VALID,98.958,VALID,0.032,VALID,21.899,INVALID,360.0,VALID,0.0,
2019-05-14, 02:31:06,VALID,916.957,VALID,0.0,VALID,98.941,VALID,0.019,VALID,21.893,INVALID,360.0,VALID,0.0,
2019-05-14, 02:32:06,VALID,916.959,VALID,0.0,VALID,98.934,VALID,0.008,VALID,21.852,INVALID,360.0,VALID,0.0,
2019-05-14, 02:33:06,VALID,916.957,VALID,0.0,VALID,98.983,VALID,0.019,VALID,21.882,INVALID,360.0,VALID,0.0,
2019-05-14, 02:34:06,VALID,916.941,VALID,0.0,VALID,98.986,VALID,0.019,VALID,21.916,INVALID,360.0,VALID,0.0,
2019-05-14, 02:35:06,VALID,916.951,VALID,0.0,VALID,98.998,VALID,0.015,VALID,21.938,INVALID,360.0,VALID,0.0,
2019-05-14, 02:36:06,VALID,916.932,VALID,0.0,VALID,98.953,VALID,0.006,VALID,21.896,INVALID,360.0,VALID,0.0,
2019-05-14, 02:37:06,VALID,916.92,VALID,0.0,VALID,98.922,VALID,0.021,VALID,21.833,INVALID,360.0,VALID,0.0,
2019-05-14, 02:38:06,VALID,916.913,VALID,0.0,VALID,98.878,VALID,0.017,VALID,21.79,INVALID,360.0,VALID,0.0,
2019-05-14, 02:39:06,VALID,916.885,VALID,0.0,VALID,98.868,VALID,0.016,VALID,21.749,INVALID,360.0,VALID,0.0,
2019-05-14, 02:40:06,VALID,916.84,VALID,0.0,VALID,98.838,VALID,0.025,VALID,21.719,INVALID,360.0,VALID,0.0,
2019-05-14, 02:41:06,VALID,916.822,VALID,0.0,VALID,98.849,VALID,0.02,VALID,21.74,INVALID,360.0,VALID,0.0,
2019-05-14, 02:42:06,VALID,916.779,VALID,0.0,VALID,98.839,VALID,0.019,VALID,21.729,INVALID,360.0,VALID,0.0,
2019-05-14, 02:43:06,VALID,916.767,VALID,0.0,VALID,98.856,VALID,0.011,VALID,21.748,INVALID,360.0,VALID,0.0,
2019-05-14, 02:44:06,VALID,916.773,VALID,0.0,VALID,98.852,VALID,0.013,VALID,21.767,INVALID,360.0,VALID,0.0,
2019-05-14, 02:45:06,VALID,916.706,VALID,0.0,VALID,98.763,VALID,0.009,VALID,21.725,INVALID,360.0,VALID,0.0,
2019-05-14, 02:46:06,VALID,916.66,VALID,0.0,VALID,98.762,VALID,0.01,VALID,21.74,INVALID,360.0,VALID,0.0,
2019-05-14, 02:47:06,VALID,916.628,VALID,0.0,VALID,98.757,VALID,0.02,VALID,21.737,INVALID,360.0,VALID,0.0,
2019-05-14, 02:48:06,VALID,916.558,VALID,0.0,VALID,98.72,VALID,0.036,VALID,21.703,INVALID,360.0,VALID,0.0,
2019-05-14, 02:49:06,VALID,916.562,VALID,0.0,VALID,98.766,VALID,0.021,VALID,21.753,INVALID,360.0,VALID,0.0,
2019-05-14, 02:50:06,VALID,916.564,VALID,0.0,VALID,98.702,VALID,0.041,VALID,21.72,INVALID,360.0,VALID,0.0,
2019-05-14, 02:51:06,VALID,916.578,VALID,0.0,VALID,98.609,VALID,0.036,VALID,21.686,INVALID,360.0,VALID,0.0,
2019-05-14, 02:52:06,VALID,916.606,VALID,0.0,VALID,98.603,VALID,0.046,VALID,21.684,INVALID,360.0,VALID,0.0,
2019-05-14, 02:53:06,VALID,916.663,VALID,0.0,VALID,98.592,VALID,0.031,VALID,21.68,INVALID,360.0,VALID,0.0,
2019-05-14, 02:54:06,VALID,916.695,VALID,0.0,VALID,98.606,VALID,0.025,VALID,21.708,INVALID,360.0,VALID,0.0,
2019-05-14, 02:55:06,VALID,916.709,VALID,0.0,VALID,98.568,VALID,0.036,VALID,21.709,INVALID,360.0,VALID,0.0,
2019-05-14, 02:56:06,VALID,916.733,VALID,0.0,VALID,98.495,VALID,0.038,VALID,21.684,INVALID,360.0,VALID,0.0,
2019-05-14, 02:57:06,VALID,916.73,VALID,0.0,VALID,98.454,VALID,0.04,VALID,21.673,INVALID,360.0,VALID,0.0,
2019-05-14, 02:58:06,VALID,916.705,VALID,0.0,VALID,98.481,VALID,0.031,VALID,21.682,INVALID,360.0,VALID,0.0,
2019-05-14, 02:59:06,VALID,916.68,VALID,0.0,VALID,98.565,VALID,0.038,VALID,21.736,INVALID,360.0,VALID,0.0,
2019-05-14, 03:00:06,VALID,916.658,VALID,0.0,VALID,98.615,VALID,0.035,VALID,21.785,INVALID,360.0,VALID,0.0,
2019-05-14, 03:01:06,VALID,916.64,VALID,0.0,VALID,98.67,VALID,0.006,VALID,21.831,INVALID,360.0,VALID,0.0,
2019-05-14, 03:02:06,VALID,916.604,VALID,0.0,VALID,98.609,VALID,0.019,VALID,21.793,INVALID,360.0,VALID,0.0,
2019-05-14, 03:03:06,VALID,916.607,VALID,0.0,VALID,98.525,VALID,0.01,VALID,21.744,INVALID,360.0,VALID,0.0,
2019-05-14, 03:04:06,VALID,916.6,VALID,0.0,VALID,98.54,VALID,0.008,VALID,21.761,INVALID,360.0,VALID,0.0,
2019-05-14, 03:05:06,VALID,916.61,VALID,0.0,VALID,98.545,VALID,0.016,VALID,21.783,INVALID,360.0,VALID,0.0,
2019-05-14, 03:06:06,VALID,916.626,VALID,0.0,VALID,98.473,VALID,0.006,VALID,21.766,INVALID,360.0,VALID,0.0,
2019-05-14, 03:07:06,VALID,916.64,VALID,0.0,VALID,98.4,VALID,0.03,VALID,21.725,INVALID,360.0,VALID,0.0,
2019-05-14, 03:08:06,VALID,916.627,VALID,0.0,VALID,98.366,VALID,0.013,VALID,21.704,INVALID,360.0,VALID,0.0,
2019-05-14, 03:09:06,VALID,916.666,VALID,0.0,VALID,98.346,VALID,0.003,VALID,21.693,INVALID,360.0,VALID,0.0,
2019-05-14, 03:10:06,VALID,916.659,VALID,0.0,VALID,98.361,VALID,0.011,VALID,21.694,INVALID,360.0,VALID,0.0,
2019-05-14, 03:11:06,VALID,916.661,VALID,0.0,VALID,98.344,VALID,0.01,VALID,21.677,INVALID,360.0,VALID,0.0,
2019-05-14, 03:12:06,VALID,916.659,VALID,0.0,VALID,98.382,VALID,0.004,VALID,21.655,INVALID,360.0,VALID,0.0,
2019-05-14, 03:13:06,VALID,916.675,VALID,0.0,VALID,98.421,VALID,0.008,VALID,21.641,INVALID,360.0,VALID,0.0,
2019-05-14, 03:14:06,VALID,916.677,VALID,0.0,VALID,98.49,VALID,0.0,VALID,21.627,INVALID,360.0,VALID,0.0,
2019-05-14, 03:15:06,VALID,916.681,VALID,0.0,VALID,98.518,VALID,-0.008,VALID,21.625,INVALID,360.0,VALID,0.0,
2019-05-14, 03:16:06,VALID,916.686,VALID,0.0,VALID,98.59,VALID,0.013,VALID,21.617,INVALID,360.0,VALID,0.0,
2019-05-14, 03:17:06,VALID,916.72,VALID,0.0,VALID,98.565,VALID,0.025,VALID,21.599,INVALID,360.0,VALID,0.0,
2019-05-14, 03:18:06,VALID,916.714,VALID,0.0,VALID,98.572,VALID,0.021,VALID,21.587,INVALID,360.0,VALID,0.0,
2019-05-14, 03:19:06,VALID,916.748,VALID,0.0,VALID,98.572,VALID,0.019,VALID,21.58,INVALID,360.0,VALID,0.0,
2019-05-14, 03:20:06,VALID,916.761,VALID,0.0,VALID,98.664,VALID,0.016,VALID,21.616,INVALID,360.0,VALID,0.0,
2019-05-14, 03:21:06,VALID,916.763,VALID,0.0,VALID,98.691,VALID,0.018,VALID,21.619,INVALID,360.0,VALID,0.0,
2019-05-14, 03:22:06,VALID,916.743,VALID,0.0,VALID,98.632,VALID,0.013,VALID,21.558,INVALID,360.0,VALID,0.0,
2019-05-14, 03:23:06,VALID,916.741,VALID,0.0,VALID,98.62,VALID,-0.002,VALID,21.53,INVALID,360.0,VALID,0.0,
2019-05-14, 03:24:06,VALID,916.72,VALID,0.0,VALID,98.567,VALID,-0.003,VALID,21.484,INVALID,360.0,VALID,0.0,
2019-05-14, 03:25:06,VALID,916.702,VALID,0.0,VALID,98.558,VALID,-0.002,VALID,21.478,INVALID,360.0,VALID,0.0,
2019-05-14, 03:26:06,VALID,916.674,VALID,0.0,VALID,98.532,VALID,0.004,VALID,21.473,INVALID,360.0,VALID,0.0,
2019-05-14, 03:27:06,VALID,916.649,VALID,0.0,VALID,98.484,VALID,0.01,VALID,21.447,INVALID,360.0,VALID,0.0,
2019-05-14, 03:28:06,VALID,916.639,VALID,0.0,VALID,98.535,VALID,0.021,VALID,21.478,INVALID,360.0,VALID,0.0,
2019-05-14, 03:29:06,VALID,916.621,VALID,0.0,VALID,98.532,VALID,0.013,VALID,21.478,INVALID,360.0,VALID,0.0,
2019-05-14, 03:30:06,VALID,916.611,VALID,0.0,VALID,98.522,VALID,0.024,VALID,21.465,INVALID,360.0,VALID,0.0,
2019-05-14, 03:31:06,VALID,916.599,VALID,0.0,VALID,98.51,VALID,0.034,VALID,21.462,INVALID,360.0,VALID,0.0,
2019-05-14, 03:32:06,VALID,916.596,VALID,0.0,VALID,98.523,VALID,0.047,VALID,21.452,INVALID,360.0,VALID,0.0,
2019-05-14, 03:33:06,VALID,916.605,VALID,0.0,VALID,98.494,VALID,0.064,VALID,21.433,INVALID,360.0,VALID,0.0,
2019-05-14, 03:34:06,VALID,916.579,VALID,0.0,VALID,98.489,VALID,0.045,VALID,21.428,INVALID,360.0,VALID,0.0,
2019-05-14, 03:35:06,VALID,916.575,VALID,0.0,VALID,98.505,VALID,0.042,VALID,21.438,INVALID,360.0,VALID,0.0,
2019-05-14, 03:36:06,VALID,916.561,VALID,0.0,VALID,98.51,VALID,0.044,VALID,21.455,INVALID,360.0,VALID,0.0,
2019-05-14, 03:37:06,VALID,916.537,VALID,0.0,VALID,98.515,VALID,0.054,VALID,21.438,INVALID,360.0,VALID,0.0,
2019-05-14, 03:38:06,VALID,916.518,VALID,0.0,VALID,98.448,VALID,0.046,VALID,21.4,INVALID,360.0,VALID,0.0,